Flag for Brazil Weather past 2 weeks in Porto Alegre, Rio Grande do Sul, Brazil

66 °F

Passing clouds.

Feels Like: 66 °F
Forecast: N/A
Wind: 17 mph from Southeast

Location: Porto Alegre Aero-Porto

Current Time: Oct 13, 2015 at 7:30:33 PM

Latest Report: Oct 13, 2015 at 6:00 PM

Visibility: N/A

Pressure: 30.01 "Hg

Humidity: 68%

Dew point: 55 °F

Location of Porto AlegreLocation

Historic Weather in Porto Alegre — Graph


Porto Alegre temperature yesterday

Maximum temperature yesterday: 68 °F (at 2:00 PM)
Minimum temperature yesterday: 61 °F (at 3:00 AM)
Average temperature yesterday: 64 °F

Past Weeks' High & Low Weather Summary

High84 °F (Oct 6, 3:00 PM)100% (Sep 29, 6:00 AM)30.18 "Hg (Sep 29, 6:00 AM)
Low32 °F (Oct 8, 4:00 AM)30% (Oct 9, 2:00 PM)29.68 "Hg (Oct 8, 3:00 AM)
Average64 °F81%29.97 "Hg
* Reported Sep 28 6:00 PM — Oct 13 6:00 PM, Porto Alegre, Weather by CustomWeather, © 2015

Note: Actual official high and low records may vary slightly from our data, if they occured in-between our weather recording intervals... More about our weather records


Porto Alegre weather history for previous 24 hours

Time TempWeatherWind HumidityBarometerVisibility
6:00 PM
Tue, Oct 13
66 °FPassing clouds.17 mph68%30.01 "HgN/A
5:00 PM68 °FScattered clouds.18 mph69%29.98 "HgN/A
4:00 PM72 °FScattered clouds.14 mph57%29.98 "HgN/A
3:00 PM72 °FPassing clouds.7 mph50%30.04 "HgN/A
2:00 PM72 °FScattered clouds.5 mph50%30.07 "HgN/A
1:00 PM72 °FPartly sunny.6 mph50%30.09 "HgN/A
12:00 PM70 °FPartly sunny.8 mph57%30.09 "HgN/A
11:00 AM68 °FPartly sunny.6 mph60%30.12 "HgN/A
10:00 AM66 °FPartly sunny.5 mph68%30.15 "HgN/A
9:00 AM66 °FBroken clouds.2 mph73%30.15 "HgN/A
8:00 AM63 °FScattered clouds.2 mph83%30.12 "HgN/A
7:00 AM61 °FPassing clouds.5 mph88%30.12 "HgN/A
6:00 AM57 °FScattered clouds.5 mph94%30.09 "HgN/A
5:00 AM57 °FPartly sunny.2 mph94%30.07 "HgN/A
4:00 AM57 °FPassing clouds.No wind94%30.04 "HgN/A
3:00 AM59 °FPassing clouds.3 mph94%30.04 "HgN/A
2:00 AM59 °FPassing clouds.2 mph88%30.04 "HgN/A
1:00 AM59 °FPassing clouds.3 mph88%30.07 "HgN/A
12:00 AM61 °FPassing clouds.No wind83%30.07 "HgN/A
11:00 PM
Mon, Oct 12
61 °FPassing clouds.7 mph83%30.07 "HgN/A
10:00 PM63 °FPartly cloudy.9 mph83%30.04 "HgN/A
9:00 PM63 °FPassing clouds.5 mph88%30.04 "HgN/A
8:00 PM64 °FPassing clouds.5 mph78%30.01 "HgN/A
7:00 PM66 °FPassing clouds.8 mph73%29.98 "HgN/A
Weather by CustomWeather, © 2015

See weather overviewHow to use our weather pages